Location: Alfords
(31.4624°N, 83.9238°W)
Time: 20:33:36
(UTC+00:00)

Envisat - Pass Details

Date: 22 September 2021
Orbit: 764 x 766 km, 98.2° (Epoch: 21 October)

Event Time Altitude Azimuth Distance (km) Brightness Sun altitude
Rises 10:52:29 0° 8° (N) 3,233 6.4 -7.6°
Reaches altitude 10° 10:54:48 10° 6° (N) 2,303 5.6 -7.1°
Maximum altitude 10:59:50 68° 285° (WNW) 823 3.0 -6.0°
Drops below altitude 10° 11:04:51 10° 203° (SSW) 2,290 5.2 -4.9°
Sets 11:07:09 0° 200° (SSW) 3,212 6.0 -4.5°
